Weather in Montluçon

France     46°20′25″N   2°36′40″E
temp.,
°C
wind,
m/s
gust,
m/s
humid.,
%
clouds,
%
prec.,
mm/h
press.,
hPa
HPBL,
m
17 april, sat
sat1723:00−1n23935 0.0 102544
02:00−3nnw119768 0.0 102512
05:00−4nnw22979 0.0 102412
08:00−3nnw129753 0.0 102584
11:00+5nne5775100 0.0 1023935
14:00+8n685895 0.1 10211586
17:00+8n896582 0.1 10201101
20:00+6n597994 0.1 1021631
18 april, sun
sun1823:00+5n2782100 0.0 1022249
02:00+4nnw2390100 0.0 102269
05:000nw239699 0.0 102334
08:00+2wnw129288 0.0 102382
11:00+8n346987 0.0 1023734
14:00+9n4567100 0.2 10221207
17:00+9n4568100 0.3 10211208
20:00+7nne258694 0.6 1022152
19 april, mon
mon1923:00+4nnw1190100 0.0 102210
02:00+2wsw019331 0.0 102210
05:00+1ssw11945 0.0 102110
08:00+2ssw119439 0.0 102115
11:00+8ne247890 0.0 1020530
14:00+11ne345944 0.1 10191468
17:00+12nne335686 0.1 10171432
20:00+9ne237615 0.1 101747
20 april, tue
tue2023:00+5ne118671 0.0 101818
02:00+3sse11894 0.0 101710
05:00+2e11900 0.0 101710
08:00+3e11890 0.0 101717
11:00+11ene46584 0.0 1016963
14:00+13ene455095 0.0 10141620
17:00+14nne445497 0.1 10131377
20:00+9nne3787100 0.9 1015202
21 april, wed
wed2123:00+6n119392 0.6 101712
02:00+4nnw11975 0.6 101810
05:00+3sw00965 0.0 101810
08:00+4w00952 0.0 101919
11:00+11nne337910 0.0 1019560
14:00+14nne446815 0.6 10181198
17:00+13n557338 1.1 10181092
20:00+10nne488695 1.4 1019349